sat.trackr.live / text

‹ back to catalog

STARLINK-36731

NORAD 68964 · 2026-099P

PAYLOAD ACTIVE UNKNOWN

§ Identity

Operator
Country
US
Launch date
2026-05-01
Launch site
AFETR
Launch vehicle
Mass (kg)
RCS (m²)

Purposes: comms

External: N2YO · Heavens-Above · Gunter

§ Orbital elements

Epoch: 2026-09-19T23:18:07.072416Z

Period
93.85 min
Inclination
53.1585°
Eccentricity
0.0000819
Mean motion
15.34404918 rev/d
Perigee alt
462.1 km
Apogee alt
463.2 km
Semi-major
6,840.8 km
B*
4.1803e-4
RAAN
78.2214°
Arg perigee
119.4037°
Mean anomaly
240.7047°
Rev number
2,182

§ Raw data

STARLINK-367311 68964U 26099P   26262.97091519  .00013776  00000+0  41803-3 0  99902 68964  53.1585  78.2214 0000819 119.4037 240.7047 15.34404918 21825

JSON: /api/v1/satellites/68964 · /tle

For live sub-satellite position, see the globe view (requires WebGL).

§ Visibility from observer

Set your observer location to see the next 7 days of passes ≥ 10°. The values pass through the URL so the page stays shareable.

No JS? Fill the form by hand. The geolocation button needs JavaScript.